Regional Weather Roundup
Issued by NWS

Home | Current Version | Previous Version | Graphics & Text | Print | Product List | Glossary On
Versions: 1 2 3 4 5 6 7 8 9 10 11 12 13 14 15 16 17 18 19 20 21 22 23 24 25 26 27 28 29 30 31 32 33 34 35 36 37 38 39 40 41 42 43 44 45 46 47 48 49 50
000
ASUS44 KMEG 282210
RWRTN
TENNESSEE HOURLY STATE WEATHER ROUNDUP
NATIONAL WEATHER SERVICE MEMPHIS TN
500 PM CDT MON JUL 28 2014

TNZ002-004-019-021-049-052-054-088>092-282300-
WEST TENNESSEE

CITY           SKY/WX    TMP DP  RH WIND       PRES   REMARKS
MEMPHIS INTL   MOSUNNY   83  60  45 N14       30.04S
NWS MEMPHIS      N/A     82 N/A N/A MISG        N/A
JACKSON        MOSUNNY   83  62  49 N14       30.03S
DYERSBURG      PTSUNNY   81  57  44 N9G17     30.04F
UNION CITY     MOSUNNY   79  63  57 NW12      30.02F
PARIS          MOSUNNY   76  61  59 N9        30.04S
LEXINGTON      PTSUNNY   79  63  57 N9        30.02S
SAVANNAH       SUNNY     83  63  50 N10       30.02S
$$

TNZ008-025-027-028-033-062-065-066-282300-
NORTH MIDDLE TENNESSEE

CITY           SKY/WX    TMP DP  RH WIND       PRES   REMARKS
NASHVILLE      PTSUNNY   81  59  47 NW15G21   29.99S
DICKSON        SUNNY     79  57  47 N10       30.02S
PORTLAND       MOSUNNY   75  57  53 N13       30.00S
CLARKSVILLE    CLOUDY    80  57  45 N14       30.01S
LEBANON        PTSUNNY   81  58  45 NW13      29.98S
SMYRNA         MOSUNNY   85  61  44 N15       29.99S
MURFREESBORO   MOSUNNY   81  59  47 NW7       29.98S
COOKEVILLE     PTSUNNY   79  64  61 N3        29.99S
LIVINGSTON       N/A     76  60  57 NW10      30.01R
CROSSVILLE     PTSUNNY   77  59  53 NW8       30.02S
$$

TNZ061-075-076-078-094-096-097-282300-
SOUTH MIDDLE TENNESSEE

CITY           SKY/WX    TMP DP  RH WIND       PRES   REMARKS
LEWISBURG      SUNNY     81  61  50 NW8       30.00S
FAYETTEVILLE   MOSUNNY   79  59  50 NW10      29.99F
TULLAHOMA      PTSUNNY   79  61  53 NW7       30.01S
WINCHESTER     PTSUNNY   81  61  50 N12       29.99F
MCMINNVILLE    MOSUNNY   81  64  57 NW9       30.00S
COLUMBIA       MOSUNNY   81  63  54 NW10      30.00S
SHELBYVILLE    MOSUNNY   82  64  54 NW15      30.00S
$$

TNZ017-018-042-046-047-282300-
NORTHEAST TENNESSEE

CITY           SKY/WX    TMP DP  RH WIND       PRES   REMARKS
TRI CITIES     PTSUNNY   75  56  51 W16       29.95S
ELIZABETHTON   MOCLDY    73  59  60 W8          N/A
$$

TNZ012-013-036-069-073-074-282300-
CENTRAL EAST TENNESSEE

CITY           SKY/WX    TMP DP  RH WIND       PRES   REMARKS
KNOXVILLE      PTSUNNY   79  60  52 NW8       29.95S
OAK RIDGE      PTSUNNY   81  59  47 VRB5      29.97S
GATLINBURG     PTCLDY    77  59  53 N8        29.94S
MORRISTOWN     PTCLDY    75  61  60 NW8       29.97F
$$

TNZ083-085-099-282300-
SOUTHEAST TENNESSEE

CITY           SKY/WX    TMP DP  RH WIND       PRES   REMARKS
CHATTANOOGA    MOSUNNY   84  58  40 N13       29.96S
$$

SKY/WX REPORTED AS FAIR MEANS FEW OR NO CLOUDS BELOW
12 THOUSAND FEET.




USA.gov is the U.S. government's official web portal to all federal, state and local government web resources and services.